Flag for India Weather past 2 weeks in Tiruchirappalli, Tamil Nadu, India

Now
86 °F

Passing clouds.


Feels Like: 95 °F
Forecast: 78 / 99 °F
Wind: 6 mph from Southwest

Location: Tiruchchirapalli

Current Time: Jul 29, 2015 at 11:36:07 PM

Latest Report: Jul 29, 2015 at 11:10 PM


Visibility: 4 mi

Pressure: 29.83 "Hg

Humidity: 70%

Dew point: 75 °F

Location of TiruchirappalliLocation

Historic Weather in Tiruchirappalli — Graph

°F

Tiruchirappalli temperature yesterday

Maximum temperature yesterday: 100 °F (at 2:10 PM)
Minimum temperature yesterday: 79 °F (at 7:10 PM)
Average temperature yesterday: 89 °F

Past Weeks' High & Low Weather Summary

 TemperatureHumidityPressure
High104 °F (Jul 29, 3:10 PM)94% (Jul 23, 9:40 PM)29.86 "Hg (Jul 23, 9:40 PM)
Low77 °F (Jul 23, 9:40 PM)28% (Jul 29, 3:10 PM)29.53 "Hg (Jul 16, 4:40 PM)
Average89 °F55%29.71 "Hg
* Reported Jul 14 9:40 PM — Jul 29 10:10 PM, Tiruchirappalli, Weather by CustomWeather, © 2015

Note: Actual official high and low records may vary slightly from our data, if they occured in-between our weather recording intervals... More about our weather records

Advertising

Tiruchirappalli weather history for previous 24 hours

 ConditionsComfort  
Time TempWeatherWind HumidityBarometerVisibility
10:10 PM
Wed, Jul 29
86 °FPassing clouds.6 mph75%29.83 "Hg4 mi
9:40 PM86 °FPassing clouds.8 mph75%29.80 "Hg4 mi
9:10 PM88 °FPassing clouds.9 mph70%29.80 "Hg4 mi
8:40 PM90 °FPassing clouds.10 mph63%N/A4 mi
8:10 PM90 °FPassing clouds.6 mph55%29.77 "Hg4 mi
7:40 PM91 °FPassing clouds.5 mph52%29.74 "Hg4 mi
7:10 PM91 °FPassing clouds.3 mph49%29.74 "Hg4 mi
6:40 PM93 °FPassing clouds.7 mph47%29.71 "Hg4 mi
6:10 PM95 °FScattered clouds.9 mph44%29.71 "Hg5 mi
5:40 PM99 °FScattered clouds.9 mph37%29.68 "HgN/A
5:10 PM100 °FScattered clouds.9 mph33%29.68 "HgN/A
4:40 PM102 °FScattered clouds.6 mph29%29.68 "HgN/A
4:10 PM102 °FScattered clouds.9 mph29%29.68 "HgN/A
3:40 PM104 °FScattered clouds.10 mph28%29.68 "HgN/A
3:10 PM104 °FScattered clouds.9 mph28%29.71 "HgN/A
2:40 PM102 °FScattered clouds.9 mph29%29.71 "HgN/A
2:10 PM100 °FScattered clouds.7 mph33%29.71 "HgN/A
1:40 PM100 °FScattered clouds.5 mph35%29.74 "HgN/A
1:10 PM100 °FScattered clouds.15 mph35%29.74 "HgN/A
12:40 PM99 °FScattered clouds.5 mph39%29.77 "HgN/A
12:10 PM97 °FPassing clouds.8 mph39%29.77 "Hg5 mi
11:40 AM97 °FPassing clouds.12 mph42%29.80 "Hg5 mi
10:40 AM91 °FPassing clouds.7 mph52%29.80 "Hg4 mi
10:10 AM90 °FPassing clouds.12 mph55%29.80 "Hg3 mi
9:40 AM88 °FPassing clouds.9 mph59%29.83 "Hg3 mi
9:10 AM86 °FScattered clouds.9 mph62%29.86 "Hg3 mi
8:10 AM84 °FScattered clouds.8 mph66%29.83 "Hg3 mi
7:40 AM82 °FScattered clouds.12 mph70%29.83 "Hg3 mi
7:10 AM82 °FPartly sunny.7 mph70%29.83 "Hg3 mi
6:10 AM81 °FPassing clouds.6 mph74%29.83 "Hg3 mi
5:10 AM81 °FPassing clouds.2 mph74%29.80 "Hg4 mi
4:40 AM81 °FPassing clouds.2 mph74%29.80 "Hg4 mi
2:40 AM81 °FPassing clouds.2 mph74%29.80 "Hg4 mi
2:10 AM82 °FPassing clouds.No wind66%29.80 "Hg4 mi
1:40 AM82 °FPassing clouds.2 mph66%29.83 "Hg4 mi
1:10 AM82 °FPassing clouds.3 mph66%29.83 "Hg4 mi
12:40 AM82 °FPartly cloudy.5 mph66%29.86 "Hg4 mi
12:10 AM82 °FPartly cloudy.2 mph66%29.86 "Hg4 mi
11:40 PM
Tue, Jul 28
82 °FPartly cloudy.2 mph66%29.86 "Hg4 mi
Weather by CustomWeather, © 2015

See weather overviewHow to use our weather pages